AFR45MT LFBZ-LFLL

Flight info

Callsign AFR45MT
Flight time 0h 54m
Altitude 34000
Route SOVOS G17 ORTEZ DCT TBO DCT GONUP DCT TOU DCT GAI/N0438F300 DCT MEN/N0410F260 DCT NINUN G53 MEZIN
Aircraft A320/M-SDE3FGHIRWY/LB1

Departure

Time 2026-04-23 13:11
Airport Biarritz Pays Basque airport (LFBZ)

Arrival

Time 2026-04-23 14:06
Airport Lyon Saint-Exupéry Airport (LFLL)
Time Latitude Longitude Altitude Speed Heading
2026-04-23 12:41 43.47100 -1.53177 245 ft 0 kts 162°
2026-04-23 13:06 43.46993 -1.53200 245 ft 15 kts 195°
2026-04-23 13:06 43.46934 -1.53184 245 ft 0 kts 158°
2026-04-23 13:09 43.46925 -1.53178 244 ft 9 kts 158°
2026-04-23 13:09 43.46833 -1.53202 246 ft 15 kts 238°
2026-04-23 13:10 43.46825 -1.53329 247 ft 15 kts 271°
2026-04-23 13:10 43.46823 -1.53552 246 ft 26 kts 268°
2026-04-23 13:10 43.46854 -1.53706 244 ft 8 kts 242°
2026-04-23 13:10 43.46817 -1.53676 246 ft 10 kts 87°
2026-04-23 13:11 43.46820 -1.53536 246 ft 31 kts 90°
2026-04-23 13:11 43.46830 -1.52865 246 ft 103 kts 89°
2026-04-23 13:11 43.46864 -1.51651 379 ft 139 kts 84°
2026-04-23 13:11 43.46906 -1.50333 939 ft 140 kts 86°
2026-04-23 13:12 43.46914 -1.48978 1482 ft 144 kts 88°
2026-04-23 13:12 43.46918 -1.47604 2083 ft 143 kts 91°
2026-04-23 13:12 43.46911 -1.46124 2285 ft 169 kts 95°
2026-04-23 13:12 43.46688 -1.44429 2619 ft 190 kts 102°
2026-04-23 13:13 43.46372 -1.42544 2952 ft 215 kts 103°
2026-04-23 13:13 43.46042 -1.40415 3306 ft 240 kts 104°
2026-04-23 13:13 43.45655 -1.38074 3811 ft 259 kts 107°
2026-04-23 13:13 43.45242 -1.35619 4635 ft 266 kts 106°
2026-04-23 13:14 43.44828 -1.33117 5529 ft 270 kts 106°
2026-04-23 13:14 43.44414 -1.30572 6420 ft 274 kts 105°
2026-04-23 13:14 43.44002 -1.27998 7257 ft 277 kts 105°
2026-04-23 13:14 43.43588 -1.25389 8111 ft 281 kts 105°
2026-04-23 13:15 43.43170 -1.22747 8945 ft 285 kts 105°
2026-04-23 13:15 43.42748 -1.20063 9788 ft 288 kts 104°
2026-04-23 13:15 43.42317 -1.17319 10355 ft 303 kts 104°
2026-04-23 13:15 43.41854 -1.14382 10593 ft 326 kts 104°
2026-04-23 13:16 43.41380 -1.11232 10947 ft 344 kts 102°
2026-04-23 13:16 43.40947 -1.07960 11593 ft 351 kts 101°
2026-04-23 13:16 43.40535 -1.04630 12290 ft 356 kts 101°
2026-04-23 13:16 43.40126 -1.01246 12978 ft 361 kts 101°
2026-04-23 13:17 43.39711 -0.97860 13665 ft 366 kts 101°
2026-04-23 13:17 43.39273 -0.94391 14307 ft 371 kts 101°
2026-04-23 13:17 43.38820 -0.90883 14931 ft 375 kts 101°
2026-04-23 13:17 43.38367 -0.87337 15560 ft 379 kts 100°
2026-04-23 13:18 43.37934 -0.83749 16185 ft 382 kts 99°
2026-04-23 13:18 43.37513 -0.80125 16814 ft 386 kts 99°
2026-04-23 13:18 43.37096 -0.76462 17434 ft 390 kts 98°
2026-04-23 13:18 43.36678 -0.72766 18068 ft 393 kts 97°
2026-04-23 13:19 43.36463 -0.69015 18628 ft 396 kts 91°
2026-04-23 13:19 43.36343 -0.65221 19154 ft 399 kts 91°
2026-04-23 13:19 43.36214 -0.61387 19682 ft 403 kts 91°
2026-04-23 13:19 43.36074 -0.57517 20198 ft 407 kts 92°
2026-04-23 13:20 43.35927 -0.53607 20722 ft 411 kts 92°
2026-04-23 13:20 43.35777 -0.49666 21240 ft 415 kts 92°
2026-04-23 13:20 43.35625 -0.45684 21758 ft 419 kts 92°
2026-04-23 13:20 43.35475 -0.41674 22264 ft 423 kts 92°
2026-04-23 13:21 43.35325 -0.37622 22752 ft 426 kts 91°
2026-04-23 13:21 43.35175 -0.33582 23228 ft 430 kts 91°
2026-04-23 13:21 43.35018 -0.29461 23697 ft 434 kts 92°
2026-04-23 13:21 43.34856 -0.25308 24092 ft 437 kts 92°
2026-04-23 13:22 43.34691 -0.21129 24489 ft 440 kts 92°
2026-04-23 13:22 43.34523 -0.16909 24881 ft 443 kts 92°
2026-04-23 13:22 43.34353 -0.12677 25277 ft 445 kts 92°
2026-04-23 13:22 43.34180 -0.08419 25650 ft 448 kts 92°
2026-04-23 13:23 43.34005 -0.04135 26012 ft 450 kts 92°
2026-04-23 13:23 43.33829 0.00184 26373 ft 453 kts 91°
2026-04-23 13:23 43.33649 0.04523 26700 ft 456 kts 91°
2026-04-23 13:23 43.33464 0.08894 27047 ft 459 kts 91°
2026-04-23 13:24 43.33450 0.13285 27380 ft 459 kts 83°
2026-04-23 13:24 43.33911 0.17628 27726 ft 459 kts 74°
2026-04-23 13:24 43.34770 0.21843 28056 ft 460 kts 70°
2026-04-23 13:24 43.35665 0.26012 28381 ft 462 kts 70°
2026-04-23 13:25 43.36566 0.30258 28708 ft 464 kts 71°
2026-04-23 13:25 43.37465 0.34534 29030 ft 467 kts 71°
2026-04-23 13:25 43.38362 0.38829 29338 ft 469 kts 71°
2026-04-23 13:25 43.39264 0.43148 29644 ft 471 kts 70°
2026-04-23 13:26 43.40170 0.47481 29924 ft 473 kts 70°
2026-04-23 13:26 43.41081 0.51839 30198 ft 475 kts 70°
2026-04-23 13:26 43.41992 0.56212 30434 ft 477 kts 71°
2026-04-23 13:26 43.42908 0.60602 30670 ft 478 kts 71°
2026-04-23 13:27 43.43826 0.65006 30907 ft 480 kts 71°
2026-04-23 13:27 43.44746 0.69424 31143 ft 480 kts 71°
2026-04-23 13:27 43.45686 0.73825 31447 ft 478 kts 68°
2026-04-23 13:27 43.46958 0.78030 31768 ft 473 kts 59°
2026-04-23 13:28 43.48535 0.81997 32083 ft 471 kts 57°
2026-04-23 13:28 43.50124 0.85930 32390 ft 470 kts 57°
2026-04-23 13:28 43.51707 0.89861 32688 ft 469 kts 57°
2026-04-23 13:28 43.53286 0.93794 32993 ft 469 kts 57°
2026-04-23 13:29 43.54327 0.96398 33185 ft 468 kts 57°
2026-04-23 13:29 43.55897 1.00328 33486 ft 468 kts 57°
2026-04-23 13:29 43.57463 1.04252 33789 ft 467 kts 57°
2026-04-23 13:29 43.59026 1.08179 34062 ft 467 kts 57°
2026-04-23 13:30 43.61088 1.13359 34133 ft 462 kts 57°
2026-04-23 13:30 43.63673 1.19855 34135 ft 459 kts 57°
2026-04-23 13:31 43.66725 1.27553 34141 ft 458 kts 57°
2026-04-23 13:31 43.70147 1.34831 34138 ft 453 kts 49°
2026-04-23 13:32 43.73899 1.41818 34134 ft 453 kts 49°
2026-04-23 13:32 43.77638 1.48835 34133 ft 453 kts 49°
2026-04-23 13:33 43.81375 1.55858 34159 ft 452 kts 49°
2026-04-23 13:33 43.85097 1.62883 34165 ft 451 kts 49°
2026-04-23 13:34 43.88805 1.69894 34167 ft 451 kts 49°
2026-04-23 13:34 43.92509 1.76903 34163 ft 450 kts 49°
2026-04-23 13:35 43.96199 1.83926 34171 ft 450 kts 49°
2026-04-23 13:35 43.99801 1.91059 34184 ft 451 kts 50°
2026-04-23 13:36 44.03337 1.98252 34197 ft 450 kts 50°
2026-04-23 13:36 44.06848 2.05385 34188 ft 450 kts 50°
2026-04-23 13:37 44.10397 2.12538 34184 ft 449 kts 50°
2026-04-23 13:37 44.13950 2.19685 34193 ft 449 kts 50°
2026-04-23 13:38 44.17483 2.26851 34189 ft 449 kts 50°
2026-04-23 13:38 44.21006 2.34031 34228 ft 448 kts 50°
2026-04-23 13:39 44.24524 2.41202 34220 ft 448 kts 50°
2026-04-23 13:39 44.28038 2.48374 34228 ft 447 kts 50°
2026-04-23 13:40 44.31550 2.55556 34230 ft 448 kts 50°
2026-04-23 13:40 44.35053 2.62742 34228 ft 447 kts 50°
2026-04-23 13:41 44.38548 2.69944 34250 ft 447 kts 50°
2026-04-23 13:41 44.42034 2.77138 34252 ft 447 kts 50°
2026-04-23 13:42 44.45513 2.84339 34246 ft 446 kts 50°
2026-04-23 13:42 44.48984 2.91527 34251 ft 446 kts 50°
2026-04-23 13:43 44.52453 2.98730 34241 ft 445 kts 50°
2026-04-23 13:43 44.55885 3.05886 34272 ft 445 kts 49°
2026-04-23 13:44 44.59338 3.13100 34281 ft 445 kts 49°
2026-04-23 13:44 44.62688 3.20433 34268 ft 448 kts 52°
2026-04-23 13:45 44.65738 3.28083 34252 ft 450 kts 54°
2026-04-23 13:45 44.68707 3.35826 34247 ft 449 kts 54°
2026-04-23 13:46 44.71729 3.43501 34241 ft 448 kts 53°
2026-04-23 13:46 44.74807 3.51172 33008 ft 457 kts 53°
2026-04-23 13:46 44.76398 3.55119 31817 ft 465 kts 54°
2026-04-23 13:47 44.77943 3.58998 31389 ft 443 kts 54°
2026-04-23 13:47 44.79413 3.62727 30750 ft 429 kts 54°
2026-04-23 13:47 44.80838 3.66352 30115 ft 417 kts 54°
2026-04-23 13:47 44.82223 3.69874 29500 ft 404 kts 54°
2026-04-23 13:48 44.83579 3.73314 28935 ft 401 kts 54°
2026-04-23 13:48 44.84937 3.76743 28360 ft 400 kts 54°
2026-04-23 13:48 44.86294 3.80164 27788 ft 400 kts 54°
2026-04-23 13:48 44.87631 3.83542 27221 ft 400 kts 54°
2026-04-23 13:49 44.88982 3.86966 26645 ft 399 kts 54°
2026-04-23 13:49 44.90330 3.90394 26082 ft 399 kts 54°
2026-04-23 13:49 44.91671 3.93817 25528 ft 398 kts 55°
2026-04-23 13:49 44.93010 3.97242 25001 ft 398 kts 55°
2026-04-23 13:50 44.94345 4.00661 24438 ft 398 kts 55°
2026-04-23 13:50 44.95679 4.04080 23931 ft 397 kts 55°
2026-04-23 13:50 44.97011 4.07499 23128 ft 400 kts 56°
2026-04-23 13:50 44.98369 4.10969 21967 ft 404 kts 57°
2026-04-23 13:51 44.99718 4.14434 21140 ft 396 kts 57°
2026-04-23 13:51 45.01007 4.17772 20685 ft 378 kts 57°
2026-04-23 13:51 45.02242 4.20971 20207 ft 363 kts 58°
2026-04-23 13:51 45.03437 4.24052 19752 ft 355 kts 58°
2026-04-23 13:52 45.04622 4.27102 19283 ft 354 kts 59°
2026-04-23 13:52 45.05805 4.30153 18821 ft 353 kts 59°
2026-04-23 13:52 45.06985 4.33202 18338 ft 353 kts 59°
2026-04-23 13:52 45.08157 4.36242 17855 ft 351 kts 59°
2026-04-23 13:53 45.09320 4.39261 17398 ft 348 kts 59°
2026-04-23 13:53 45.10461 4.42227 16954 ft 346 kts 60°
2026-04-23 13:53 45.11626 4.45247 16495 ft 344 kts 60°
2026-04-23 13:53 45.12755 4.48180 16065 ft 342 kts 61°
2026-04-23 13:54 45.13895 4.51133 15623 ft 340 kts 61°
2026-04-23 13:54 45.15023 4.54066 15186 ft 339 kts 62°
2026-04-23 13:54 45.16147 4.56992 14745 ft 337 kts 62°
2026-04-23 13:54 45.17263 4.59906 14310 ft 336 kts 62°
2026-04-23 13:55 45.18375 4.62811 13850 ft 335 kts 63°
2026-04-23 13:55 45.19479 4.65706 13395 ft 333 kts 63°
2026-04-23 13:55 45.20571 4.68579 12953 ft 330 kts 63°
2026-04-23 13:55 45.21654 4.71428 12505 ft 327 kts 63°
2026-04-23 13:56 45.22732 4.74262 12053 ft 325 kts 63°
2026-04-23 13:56 45.23801 4.77072 11611 ft 322 kts 63°
2026-04-23 13:56 45.24861 4.79859 11247 ft 317 kts 63°
2026-04-23 13:56 45.25887 4.82555 11127 ft 301 kts 63°
2026-04-23 13:57 45.26855 4.85103 10731 ft 288 kts 63°
2026-04-23 13:57 45.27803 4.87593 10219 ft 287 kts 61°
2026-04-23 13:57 45.28996 4.89848 10087 ft 287 kts 47°
2026-04-23 13:57 45.30481 4.91756 9789 ft 290 kts 39°
2026-04-23 13:58 45.32171 4.93396 9255 ft 290 kts 34°
2026-04-23 13:58 45.33862 4.94891 8690 ft 284 kts 33°
2026-04-23 13:58 45.35527 4.96315 8164 ft 284 kts 32°
2026-04-23 13:58 45.37221 4.97760 7690 ft 281 kts 33°
2026-04-23 13:59 45.38900 4.99207 7248 ft 283 kts 32°
2026-04-23 13:59 45.40575 5.00668 6808 ft 281 kts 33°
2026-04-23 13:59 45.42236 5.02127 6388 ft 279 kts 34°
2026-04-23 13:59 45.43825 5.03526 6251 ft 257 kts 33°
2026-04-23 14:00 45.44833 5.04416 6036 ft 248 kts 33°
2026-04-23 14:00 45.46752 5.06119 5483 ft 245 kts 33°
2026-04-23 14:00 45.48212 5.07421 4902 ft 249 kts 32°
2026-04-23 14:00 45.49636 5.08694 4687 ft 232 kts 33°
2026-04-23 14:01 45.50958 5.09874 4583 ft 216 kts 32°
2026-04-23 14:01 45.52188 5.10957 4464 ft 202 kts 28°
2026-04-23 14:01 45.53499 5.11535 4279 ft 196 kts
2026-04-23 14:01 45.54848 5.11453 4004 ft 193 kts 355°
2026-04-23 14:02 45.56184 5.11288 3756 ft 192 kts 355°
2026-04-23 14:02 45.57508 5.11126 3500 ft 189 kts 355°
2026-04-23 14:02 45.58803 5.10969 3255 ft 185 kts 355°
2026-04-23 14:02 45.60076 5.10815 3006 ft 182 kts 355°
2026-04-23 14:03 45.61326 5.10664 2767 ft 178 kts 355°
2026-04-23 14:03 45.62502 5.10522 2545 ft 163 kts 355°
2026-04-23 14:03 45.63583 5.10391 2334 ft 150 kts 355°
2026-04-23 14:03 45.64604 5.10267 2135 ft 145 kts 355°
2026-04-23 14:04 45.65599 5.10146 1939 ft 143 kts 355°
2026-04-23 14:04 45.66580 5.10027 1754 ft 140 kts 355°
2026-04-23 14:04 45.67551 5.09909 1560 ft 139 kts 355°
2026-04-23 14:04 45.68515 5.09792 1380 ft 138 kts 354°
2026-04-23 14:05 45.69472 5.09676 1193 ft 138 kts 353°
2026-04-23 14:05 45.70429 5.09551 995 ft 138 kts 353°
2026-04-23 14:05 45.71372 5.09443 839 ft 135 kts 355°
2026-04-23 14:05 45.72195 5.09337 815 ft 95 kts 354°
2026-04-23 14:06 45.72637 5.09288 808 ft 33 kts 356°
2026-04-23 14:06 45.72834 5.09199 802 ft 28 kts 329°
2026-04-23 14:06 45.72953 5.09078 796 ft 21 kts 311°
2026-04-23 14:06 45.72965 5.08961 792 ft 0 kts 266°
2026-04-23 14:07 45.72963 5.08900 792 ft 17 kts 266°
2026-04-23 14:07 45.72951 5.08626 792 ft 7 kts 265°
2026-04-23 14:07 45.72948 5.08577 792 ft 5 kts 265°
2026-04-23 14:08 45.72945 5.08536 791 ft 0 kts 264°
2026-04-23 14:08 45.72942 5.08501 790 ft 15 kts 263°
2026-04-23 14:08 45.72871 5.08358 790 ft 20 kts 198°
2026-04-23 14:09 45.72734 5.08368 791 ft 20 kts 175°
2026-04-23 14:09 45.72590 5.08381 795 ft 20 kts 177°
2026-04-23 14:09 45.72450 5.08400 797 ft 21 kts 174°
2026-04-23 14:09 45.72303 5.08418 799 ft 21 kts 176°
2026-04-23 14:10 45.72152 5.08436 802 ft 22 kts 174°
2026-04-23 14:10 45.71998 5.08454 802 ft 23 kts 176°
2026-04-23 14:10 45.71829 5.08473 802 ft 25 kts 175°
2026-04-23 14:10 45.71649 5.08496 802 ft 27 kts 175°
2026-04-23 14:11 45.71475 5.08517 805 ft 18 kts 175°
2026-04-23 14:11 45.71413 5.08409 805 ft 18 kts 264°
2026-04-23 14:11 45.71417 5.08234 802 ft 15 kts 284°
2026-04-23 14:11 45.71448 5.08208 802 ft 4 kts 15°
2026-04-23 14:12 45.71476 5.08221 802 ft 4 kts 15°
2026-04-23 14:12 45.71494 5.08228 802 ft 1 kts 15°
2026-04-23 14:12 45.71498 5.08230 802 ft 0 kts 15°
2026-04-23 14:12 45.71504 5.08232 802 ft 1 kts 15°
2026-04-23 14:13 45.71507 5.08233 802 ft 0 kts 15°